Wetterdaten: aktuell Dienstag, 22.01.2019 03:40
Datum Zeit Temp. A. Temp. A. min Feuchte A. Luftdruck Regen Wind Richtung Richtung Sonnenschein Solar Taupunkt Windchill Windben
22.01.2019 03:40 -6,6 C -6,7 C 91 % 1026,3 hPa 0,0 l/m 0,0 km/h (0 Bft) N 355 0 min 0 W/m -7,8 C -6,6 C 1,6 km/h (1 Bft)
22.01.2019 03:35 -6,7 C -6,8 C 91 % 1026,4 hPa 0,0 l/m 0,9 km/h (0 Bft) N 355 0 min 0 W/m -7,9 C -6,7 C 3,2 km/h (1 Bft)
22.01.2019 03:30 -6,8 C -6,8 C 91 % 1026,5 hPa 0,0 l/m 0,9 km/h (0 Bft) N 355 0 min 0 W/m -8,0 C -6,8 C 1,6 km/h (1 Bft)
22.01.2019 03:25 -6,8 C -6,9 C 91 % 1026,6 hPa 0,0 l/m 0,5 km/h (0 Bft) N 355 0 min 0 W/m -8,0 C -6,8 C 1,6 km/h (1 Bft)
22.01.2019 03:20 -6,9 C -7,0 C 91 % 1026,7 hPa 0,0 l/m 0,3 km/h (0 Bft) N 355 0 min 0 W/m -8,1 C -6,9 C 1,6 km/h (1 Bft)
22.01.2019 03:15 -7,0 C -7,1 C 91 % 1026,8 hPa 0,0 l/m 0,0 km/h (0 Bft) N 355 0 min 0 W/m -8,2 C -7,0 C 0,0 km/h (0 Bft)
22.01.2019 03:10 -7,1 C -7,2 C 91 % 1026,8 hPa 0,0 l/m 0,2 km/h (0 Bft) N 355 0 min 0 W/m -8,3 C -7,1 C 1,6 km/h (1 Bft)
22.01.2019 03:05 -7,2 C -7,3 C 91 % 1026,9 hPa 0,0 l/m 2,2 km/h (1 Bft) N 355 0 min 0 W/m -8,4 C -7,2 C 3,2 km/h (1 Bft)
22.01.2019 03:00 -7,3 C -7,4 C 91 % 1026,9 hPa 0,0 l/m 1,5 km/h (1 Bft) N 355 0 min 0 W/m -8,5 C -7,3 C 3,2 km/h (1 Bft)
22.01.2019 02:55 -7,4 C -7,4 C 91 % 1027,0 hPa 0,0 l/m 1,2 km/h (1 Bft) N 355 0 min 0 W/m -8,6 C -7,4 C 3,2 km/h (1 Bft)
22.01.2019 02:50 -7,4 C -7,5 C 91 % 1027,1 hPa 0,0 l/m 1,1 km/h (1 Bft) N 355 0 min 0 W/m -8,6 C -7,4 C 3,2 km/h (1 Bft)
22.01.2019 02:45 -7,5 C -7,6 C 91 % 1027,2 hPa 0,0 l/m 0,5 km/h (0 Bft) N 355 0 min 0 W/m -8,7 C -7,5 C 3,2 km/h (1 Bft)
22.01.2019 02:40 -7,6 C -7,6 C 91 % 1027,3 hPa 0,0 l/m 0,3 km/h (0 Bft) N 355 0 min 0 W/m -8,8 C -7,6 C 1,6 km/h (1 Bft)
22.01.2019 02:35 -7,6 C -7,7 C 91 % 1027,3 hPa 0,0 l/m 1,6 km/h (1 Bft) N 355 0 min 0 W/m -8,8 C -7,6 C 3,2 km/h (1 Bft)
22.01.2019 02:30 -7,7 C -7,7 C 90 % 1027,3 hPa 0,0 l/m 1,7 km/h (1 Bft) N 355 0 min 0 W/m -9,0 C -7,7 C 3,2 km/h (1 Bft)
22.01.2019 02:25 -7,7 C -7,7 C 90 % 1027,3 hPa 0,0 l/m 1,4 km/h (1 Bft) N 355 0 min 0 W/m -9,0 C -7,7 C 3,2 km/h (1 Bft)
22.01.2019 02:20 -7,7 C -7,7 C 90 % 1027,3 hPa 0,0 l/m 1,7 km/h (1 Bft) N 355 0 min 0 W/m -9,0 C -7,7 C 3,2 km/h (1 Bft)
22.01.2019 02:15 -7,6 C -7,6 C 90 % 1027,3 hPa 0,0 l/m 1,3 km/h (1 Bft) N 355 0 min 0 W/m -8,9 C -7,6 C 3,2 km/h (1 Bft)
22.01.2019 02:10 -7,6 C -7,6 C 90 % 1027,3 hPa 0,0 l/m 1,0 km/h (0 Bft) N 355 0 min 0 W/m -8,9 C -7,6 C 1,6 km/h (1 Bft)
22.01.2019 02:05 -7,4 C -7,5 C 90 % 1027,3 hPa 0,0 l/m 0,9 km/h (0 Bft) N 355 0 min 0 W/m -8,8 C -7,4 C 3,2 km/h (1 Bft)
22.01.2019 02:00 -7,5 C -7,6 C 90 % 1027,3 hPa 0,0 l/m 0,9 km/h (0 Bft) N 355 0 min 0 W/m -8,8 C -7,5 C 3,2 km/h (1 Bft)
22.01.2019 01:55 -7,6 C -7,6 C 90 % 1027,3 hPa 0,0 l/m 1,5 km/h (1 Bft) N 355 0 min 0 W/m -8,9 C -7,6 C 3,2 km/h (1 Bft)
22.01.2019 01:50 -7,6 C -7,6 C 90 % 1027,3 hPa 0,0 l/m 2,1 km/h (1 Bft) N 360 0 min 0 W/m -8,9 C -7,6 C 4,8 km/h (1 Bft)
22.01.2019 01:45 -7,6 C -7,7 C 90 % 1027,3 hPa 0,0 l/m 2,9 km/h (1 Bft) N 360 0 min 0 W/m -8,9 C -7,6 C 4,8 km/h (1 Bft)
22.01.2019 01:40 -7,7 C -7,7 C 90 % 1027,4 hPa 0,0 l/m 1,8 km/h (1 Bft) N 360 0 min 0 W/m -9,0 C -7,7 C 3,2 km/h (1 Bft)
22.01.2019 01:35 -7,6 C -7,6 C 90 % 1027,5 hPa 0,0 l/m 1,3 km/h (1 Bft) N 360 0 min 0 W/m -8,9 C -7,6 C 3,2 km/h (1 Bft)
22.01.2019 01:30 -7,6 C -7,6 C 90 % 1027,7 hPa 0,0 l/m 1,3 km/h (1 Bft) N 360 0 min 0 W/m -8,9 C -7,6 C 3,2 km/h (1 Bft)
22.01.2019 01:25 -7,6 C -7,6 C 90 % 1027,7 hPa 0,0 l/m 1,2 km/h (1 Bft) N 360 0 min 0 W/m -8,9 C -7,6 C 3,2 km/h (1 Bft)
22.01.2019 01:20 -7,5 C -7,5 C 90 % 1027,7 hPa 0,0 l/m 1,3 km/h (1 Bft) N 360 0 min 0 W/m -8,8 C -7,5 C 1,6 km/h (1 Bft)
22.01.2019 01:15 -7,4 C -7,4 C 90 % 1027,8 hPa 0,0 l/m 1,1 km/h (1 Bft) N 360 0 min 0 W/m -8,8 C -7,4 C 3,2 km/h (1 Bft)
22.01.2019 01:10 -7,4 C -7,4 C 90 % 1028,0 hPa 0,0 l/m 0,6 km/h (0 Bft) N 360 0 min 0 W/m -8,8 C -7,4 C 1,6 km/h (1 Bft)
22.01.2019 01:05 -7,3 C -7,3 C 90 % 1028,0 hPa 0,0 l/m 0,8 km/h (0 Bft) N 360 0 min 0 W/m -8,7 C -7,3 C 1,6 km/h (1 Bft)
22.01.2019 01:00 -7,3 C -7,3 C 90 % 1028,0 hPa 0,0 l/m 1,4 km/h (1 Bft) N 360 0 min 0 W/m -8,7 C -7,3 C 3,2 km/h (1 Bft)
22.01.2019 00:55 -7,2 C -7,2 C 90 % 1028,0 hPa 0,0 l/m 0,3 km/h (0 Bft) N 360 0 min 0 W/m -8,6 C -7,2 C 1,6 km/h (1 Bft)
22.01.2019 00:50 -7,2 C -7,2 C 90 % 1028,1 hPa 0,0 l/m 0,0 km/h (0 Bft) N 360 0 min 0 W/m -8,6 C -7,2 C 1,6 km/h (1 Bft)
22.01.2019 00:45 -7,1 C -7,1 C 90 % 1028,2 hPa 0,0 l/m 0,3 km/h (0 Bft) N 360 0 min 0 W/m -8,5 C -7,1 C 1,6 km/h (1 Bft)
22.01.2019 00:40 -7,0 C -7,1 C 90 % 1028,2 hPa 0,0 l/m 1,2 km/h (1 Bft) N 360 0 min 0 W/m -8,4 C -7,0 C 1,6 km/h (1 Bft)
22.01.2019 00:35 -6,9 C -6,9 C 90 % 1028,3 hPa 0,0 l/m 0,1 km/h (0 Bft) N 360 0 min 0 W/m -8,3 C -6,9 C 3,2 km/h (1 Bft)
22.01.2019 00:30 -6,8 C -6,8 C 90 % 1028,3 hPa 0,0 l/m 0,0 km/h (0 Bft) N 360 0 min 0 W/m -8,2 C -6,8 C 0,0 km/h (0 Bft)
22.01.2019 00:25 -6,8 C -6,8 C 90 % 1028,3 hPa 0,0 l/m 0,4 km/h (0 Bft) N 360 0 min 0 W/m -8,2 C -6,8 C 1,6 km/h (1 Bft)
22.01.2019 00:20 -6,7 C -6,7 C 91 % 1028,3 hPa 0,0 l/m 1,1 km/h (1 Bft) N 360 0 min 0 W/m -7,9 C -6,7 C 3,2 km/h (1 Bft)
22.01.2019 00:15 -6,7 C -6,8 C 91 % 1028,3 hPa 0,0 l/m 1,7 km/h (1 Bft) N 360 0 min 0 W/m -7,9 C -6,7 C 3,2 km/h (1 Bft)
22.01.2019 00:10 -6,8 C -6,9 C 91 % 1028,3 hPa 0,0 l/m 3,1 km/h (1 Bft) N 360 0 min 0 W/m -8,0 C -6,8 C 6,4 km/h (2 Bft)
22.01.2019 00:05 -6,9 C -7,0 C 90 % 1028,4 hPa 0,0 l/m 2,8 km/h (1 Bft) N-NW 348 0 min 0 W/m -8,3 C -6,9 C 4,8 km/h (1 Bft)
22.01.2019 00:00 -7,0 C -7,1 C 90 % 1028,4 hPa 0,0 l/m 2,9 km/h (1 Bft) N-NW 348 0 min 0 W/m -8,4 C -7,0 C 4,8 km/h (1 Bft)
_ Min-Zeit 01:40 01:40 00:00 03:40 - 00:30 - - - - 01:40 01:40 00:30
Minimum _ -7,7 C -7,7 C 90 % 1026,3 hPa - 0,0 km/h (0 Bft) - - - - -9,0 C -7,7 C 0,0 km/h (0 Bft)
_ Max-Zeit 03:40 00:20 00:10 00:00 00:00 00:10 - - 00:00 00:00 03:40 03:40 00:10
Maximum _ -6,6 C -6,7 C 91 % 1028,4 hPa 0,0 l/m 3,1 km/h
N (1 Bft)
- - 0 min 0 W/m -7,8 C -6,6 C 6,4 km/h
N (2 Bft)
Durchschnitt _ -7,3 C -7,3 C 90 % 1027,5 hPa #0,0 l/m 1,1 km/h (1 Bft) N - #0 min. 0 W/m -8,6 C -7,3 C 2,7 km/h (1 Bft)